Tracking 17264 objects as of 2-September-2015
HD Live streaming from Space Station
Soyuz TMA-18M launch Live coverage:
Soyuz TMA-18M launch from Baikonur

COSMOS 2352

Track COSMOS 2352 now!
10-day predictions
COSMOS 2352 is classified as:


NORAD ID: 25363
Int'l Code: 1998-036A
Perigee: 1,319.5 km
Apogee: 1,879.2 km
Inclination: 82.6 °
Period: 118.0 minutes
Semi major axis: 7970 km
RCS: 1.1335 m2 (large)
Launch date: June 15, 1998
Source: Commonwealth of Independent States (former USSR) (CIS)

Satellites have a single simultaneous earth-space and space-earth channel.
Your satellite tracking list
Your tracking list is empty





NASA's NSSDC Master Catalog

Two Line Element Set (TLE):
1 25363U 98036A   15243.84117458 -.00000013 +00000-0 -15907-3 0  9999
2 25363 082.5954 168.3843 0351129 257.7043 155.3989 12.20081203766532

Source of the keplerian elements: AFSPC

N2YO: 252